Date String (YYYY-MM-DD hh:mm:ss) UTC,Instrument flags,Ambient pressure (hPa),Sample flow (lpm),Bypass flow (lpm),Sample temperature (°C),Ambient temperature (°C),ASC tube jacket temperature (°C),LED temperature (°C),Box temperature (°C),Sample RH (%),Span deviation,Mass concentration (μg/m³),Mass concentration (μg/m³),Mass concentration (μg/m³)
DateTimeUTC,F1_M11,P_M11,Q1_M11,Q2_M11,T1_M11,T2_M11,T3_M11,T4_M11,T5_M11,U1_M11,ZSPAN_M11,X0_M11,X2_M11,X1_M11
2022-07-23 04:00:00,,0825.8,5.00,0.00,29.2,27.4,00.0,38.0,31.1,20.6,0000.0,0007.90,0004.21,0003.56
2022-07-23 04:01:00,,0825.8,5.01,0.00,29.3,27.6,00.0,38.0,31.2,20.6,0000.0,0007.90,0004.16,0003.55
2022-07-23 04:02:00,,0825.9,5.00,0.00,29.3,27.8,00.0,38.0,31.2,20.6,0000.0,0007.74,0004.15,0003.54
2022-07-23 04:03:00,,0825.9,5.00,0.00,29.3,28.0,00.0,38.0,31.3,20.6,0000.0,0007.80,0004.16,0003.54
2022-07-23 04:04:00,,0825.9,5.00,0.00,29.3,28.1,00.0,38.0,31.3,20.6,0000.0,0007.80,0004.14,0003.53
2022-07-23 04:05:00,,0825.9,4.99,0.00,29.4,28.3,00.0,38.1,31.4,20.6,0000.0,0007.84,0004.15,0003.53
2022-07-23 04:06:00,,0825.9,5.01,0.00,29.4,28.4,00.0,38.1,31.4,20.6,0000.0,0008.36,0004.20,0003.54
2022-07-23 04:07:00,,0826.0,4.99,0.00,29.5,27.9,00.0,38.0,31.4,20.5,0000.0,0008.50,0004.23,0003.54
2022-07-23 04:08:00,,0826.0,5.00,0.00,29.4,27.1,00.0,38.0,31.3,20.6,0000.0,0008.54,0004.22,0003.52
2022-07-23 04:09:00,,0825.9,5.00,0.00,29.4,26.9,00.0,38.0,31.2,20.7,0000.0,0008.43,0004.16,0003.52
2022-07-23 04:10:00,,0826.0,4.99,0.00,29.3,27.0,00.0,38.0,31.1,20.8,0000.0,0008.47,0004.16,0003.52
2022-07-23 04:11:00,,0826.0,5.01,0.00,29.3,27.1,00.0,38.0,31.1,20.9,0000.0,0008.52,0004.19,0003.53
2022-07-23 04:12:00,,0826.0,5.00,0.00,29.2,27.3,00.0,38.0,31.1,20.9,0000.0,0008.26,0004.21,0003.53
2022-07-23 04:13:00,,0826.0,5.00,0.00,29.3,27.5,00.0,38.0,31.1,21.0,0000.0,0008.22,0004.20,0003.54
2022-07-23 04:14:00,,0826.0,5.00,0.00,29.3,27.7,00.0,38.0,31.2,20.9,0000.0,0008.17,0004.19,0003.53
2022-07-23 04:15:00,,0826.0,5.01,0.00,29.3,27.8,00.0,38.0,31.3,20.9,0000.0,0008.18,0004.18,0003.53
2022-07-23 04:16:00,,0826.0,5.00,0.00,29.3,28.0,00.0,38.0,31.3,20.9,0000.0,0008.43,0004.13,0003.53
2022-07-23 04:17:00,,0826.0,5.00,0.00,29.4,28.2,00.0,38.1,31.4,20.8,0000.0,0008.20,0004.14,0003.52
2022-07-23 04:18:00,,0826.0,4.99,0.00,29.4,28.3,00.0,38.1,31.4,20.8,0000.0,0008.18,0004.13,0003.53
2022-07-23 04:19:00,,0825.9,5.00,0.00,29.4,28.3,00.0,38.1,31.5,20.8,0000.0,0008.12,0004.14,0003.54
2022-07-23 04:20:00,,0825.9,5.01,0.00,29.5,27.7,00.0,38.0,31.4,20.8,0000.0,0008.14,0004.17,0003.54
2022-07-23 04:21:00,,0825.9,5.01,0.00,29.4,27.0,00.0,38.0,31.3,20.9,0000.0,0008.10,0004.15,0003.54
2022-07-23 04:22:00,,0825.9,4.99,0.00,29.4,26.9,00.0,38.0,31.2,21.0,0000.0,0008.08,0004.14,0003.53
2022-07-23 04:23:00,,0825.9,5.00,0.00,29.3,26.9,00.0,38.0,31.1,21.1,0000.0,0008.20,0004.17,0003.54
2022-07-23 04:24:00,,0825.9,4.99,0.00,29.3,27.1,00.0,38.0,31.1,21.2,0000.0,0008.22,0004.16,0003.54
2022-07-23 04:25:00,,0825.8,5.01,0.00,29.2,27.3,00.0,38.0,31.1,21.2,0000.0,0008.89,0004.18,0003.54
2022-07-23 04:26:00,,0825.8,4.99,0.00,29.3,27.5,00.0,38.0,31.1,21.2,0000.0,0008.96,0004.18,0003.54
2022-07-23 04:27:00,,0825.8,4.99,0.00,29.3,27.7,00.0,38.0,31.2,21.2,0000.0,0008.64,0004.18,0003.53
2022-07-23 04:28:00,,0825.8,5.00,0.00,29.3,27.8,00.0,38.0,31.2,21.1,0000.0,0008.47,0004.17,0003.53
2022-07-23 04:29:00,,0826.2,4.99,0.00,29.3,28.0,00.0,38.0,31.3,21.1,0000.0,0008.76,0004.19,0003.53
2022-07-23 04:30:00,,0826.0,5.01,0.00,29.4,28.2,00.0,38.1,31.4,21.1,0000.0,0008.82,0004.20,0003.52
2022-07-23 04:31:00,,0825.7,5.01,0.00,29.4,28.3,00.0,38.1,31.4,21.1,0000.0,0008.82,0004.19,0003.53
2022-07-23 04:32:00,,0825.9,5.01,0.00,29.4,28.4,00.0,38.1,31.4,21.0,0000.0,0008.72,0004.18,0003.53
2022-07-23 04:33:00,,0825.8,5.00,0.00,29.5,28.0,00.0,38.1,31.4,20.9,0000.0,0008.77,0004.20,0003.53
2022-07-23 04:34:00,,0825.7,5.00,0.00,29.4,27.1,00.0,38.0,31.3,21.0,0000.0,0008.80,0004.18,0003.53
2022-07-23 04:35:00,,0825.7,5.00,0.00,29.4,26.9,00.0,38.0,31.2,21.0,0000.0,0008.82,0004.20,0003.53
2022-07-23 04:36:00,,0825.7,5.00,0.00,29.3,26.9,00.0,38.0,31.1,21.1,0000.0,0008.23,0004.19,0003.52
2022-07-23 04:37:00,,0825.6,4.99,0.00,29.3,27.0,00.0,38.0,31.1,21.1,0000.0,0008.03,0004.19,0003.51
2022-07-23 04:38:00,,0825.6,5.00,0.00,29.2,27.2,00.0,38.0,31.1,21.2,0000.0,0008.09,0004.19,0003.51
2022-07-23 04:39:00,,0825.6,4.99,0.00,29.2,27.4,00.0,38.0,31.1,21.2,0000.0,0008.21,0004.20,0003.50
2022-07-23 04:40:00,,0825.6,5.01,0.00,29.2,27.6,00.0,38.0,31.2,21.1,0000.0,0008.02,0004.20,0003.49
2022-07-23 04:41:00,,0825.6,4.99,0.00,29.3,27.8,00.0,38.0,31.2,21.1,0000.0,0007.98,0004.21,0003.49
2022-07-23 04:42:00,,0825.6,5.00,0.00,29.3,27.9,00.0,38.0,31.3,21.0,0000.0,0007.89,0004.17,0003.48
2022-07-23 04:43:00,,0825.5,5.00,0.00,29.3,28.1,00.0,38.1,31.3,20.9,0000.0,0008.06,0004.16,0003.47
2022-07-23 04:44:00,,0825.5,5.00,0.00,29.4,28.2,00.0,38.1,31.4,20.9,0000.0,0008.32,0004.15,0003.46
2022-07-23 04:45:00,,0825.5,5.00,0.00,29.4,28.3,00.0,38.1,31.4,20.9,0000.0,0008.22,0004.12,0003.46
2022-07-23 04:46:00,,0825.5,5.00,0.00,29.4,28.4,00.0,38.1,31.5,20.8,0000.0,0008.32,0004.11,0003.46
2022-07-23 04:47:00,,0825.5,4.99,0.00,29.5,28.3,00.0,38.1,31.5,20.7,0000.0,0008.62,0004.12,0003.47
2022-07-23 04:48:00,,0825.5,5.01,0.00,29.5,27.5,00.0,38.1,31.4,20.7,0000.0,0008.89,0004.14,0003.48
2022-07-23 04:49:00,,0825.5,4.99,0.00,29.4,26.9,00.0,38.0,31.3,20.7,0000.0,0008.89,0004.16,0003.49
2022-07-23 04:50:00,,0825.5,5.01,0.00,29.4,26.8,00.0,38.0,31.2,20.7,0000.0,0008.87,0004.16,0003.49
2022-07-23 04:51:00,,0825.4,4.99,0.00,29.3,26.9,00.0,38.0,31.1,20.8,0000.0,0008.76,0004.13,0003.49
2022-07-23 04:52:00,,0825.4,5.01,0.00,29.3,27.1,00.0,38.0,31.1,20.8,0000.0,0008.70,0004.09,0003.48
2022-07-23 04:53:00,,0825.5,5.00,0.00,29.3,27.3,00.0,38.0,31.1,20.8,0000.0,0008.91,0004.15,0003.48
2022-07-23 04:54:00,,0825.5,5.00,0.00,29.3,27.5,00.0,38.0,31.2,20.8,0000.0,0008.81,0004.17,0003.48
2022-07-23 04:55:00,,0825.5,5.00,0.00,29.3,27.7,00.0,38.0,31.2,20.8,0000.0,0008.54,0004.16,0003.48
2022-07-23 04:56:00,,0825.5,5.01,0.00,29.3,27.9,00.0,38.0,31.3,20.7,0000.0,0008.44,0004.17,0003.48
2022-07-23 04:57:00,,0825.6,4.99,0.00,29.3,28.0,00.0,38.1,31.3,20.7,0000.0,0008.37,0004.18,0003.48
2022-07-23 04:58:00,,0825.6,5.00,0.00,29.4,28.2,00.0,38.1,31.4,20.7,0000.0,0008.22,0004.14,0003.48
2022-07-23 04:59:00,,0825.6,5.00,0.00,29.4,28.3,00.0,38.1,31.4,20.7,0000.0,0007.85,0004.11,0003.48
